SCP
-0 0 0 -0 -0 -0 -0 -0 -0 -0 -0 -0 -0 -0 -0 -0 -0 0 -0 -0 0 0 0 0 0 0 0 0 0 0 0 0 0 0 0 0 0 0 0 0 0 0 0 0 0
0 0 -0 -0 -0 -0 -0 -0 -0 0 -0 -0 -0 -0 -0 -0 -0 -0 -0 0 0 0 0 0 -0 -0 -0 0 0 0 0 0 0 0 0 0 0 0 0 0 0 0 0 0 0
0 0 -0 -0 0 -0 -0 -0 -0 0 -0 -0 -0 -0 -0 -0 -0 0 -0 0 -0 0 0 0 -0 -0 0 0 0 0 0 0 0 0 0 0 0 0 0 0 0 0 0 0 0
0 0 0 0 -0 -0 -0 -0 -0 -0 -0 -0 -0 -0 -0 -0 -0 0 0 0 -0 0 0 0 -0 -0 0 0 0 0 0 0 -0 0 0 0 0 0 0 0 0 0 0 0 0
-0 0 0 0 -0 -0 0 -0 -0 0 -0 -0 -0 -0 -0 -0 -0 0 0 -0 0 0 0 -0 -0 -0 0 0 0 0 0 0 0 0 0 0 0 0 0 0 0 0 0 0 0
-0 0 0 0 0 0 0 -0 -0 0 0 -0 -0 -0 -0 -0 0 0 0 0 0 -0 0 0 -0 -0 0 0 0 0 0 -0 -0 0 0 0 0 0 0 0 0 0 0 0 0
-0 -0 0 0 0 0 0 -0 0 0 0 -0 -0 0 0 -0 -0 0 0 0 0 0 0 0 -0 0 0 0 -0 -0 -0 -0 0 -0 -0 0 0 0 -0 0 0 0 0 0 0
-0 0 0 0 0 0 0 0 0 0 0 0 -0 0 -0 0 0 0 0 0 0 0 0 0 0 0 0 0 0 -0 -0 0 0 0 -0 -0 0 0 -0 0 0 0 0 0 0
-0 0 0 0 0 0 0 0 0 0 0 0 -0 0 -0 0 0 0 0 0 0 0 0 0 0 0 -0 0 -0 -0 0 0 -0 0 0 0 0 0 -0 0 0 0 0 0 0
-0 -0 0 0 0 0 0 0 0 0 -0 -0 0 0 0 0 0 0 0 0 0 0 0 0 0 0 0 0 0 -0 -0 0 0 -0 0 0 0 0 -0 -0 0 0 0 0 0
0 0 0 0 0 0 0 0 0 0 0 0 0 0 0 -0 0 0 0 0 0 0 0 0 0 0 0 -0 0 0 0 0 0 0 0 0 0 0 0 0 0 0 0 0 0
0 0 0 0 0 0 0 0 0 0 0 0 0 0 0 0 0 0 0 0 0 -0 0 0 0 0 0 0 0 0 0 0 0 0 0 0 0 0 0 0 0 0 0 0 0
0 0 0 0 0 0 0 0 0 0 0 0 0 0 0 0 0 0 0 0 -0 -0 0 0 0 0 0 0 0 0 0 0 0 0 0 0 0 0 0 0 0 0 0 0 0
0 0 0 0 0 0 0 0 0 0 0 0 0 0 0 0 0 0 0 0 -0 -0 0 0 0 -0 -0 0 0 0 0 0 0 0 0 0 0 0 0 0 0 -0 -0 0 -0
0 0 0 0 0 0 0 0 0 0 0 0 0 0 0 0 0 -0 0 0 -0 -0 0 0 0 0 0 -0 0 0 0 0 0 0 0 0 0 0 0 0 0 0 -0 -0 -0
0 0 0 0 0 0 0 0 0 0 0 0 0 0 0 0 0 0 0 0 0 -0 0 0 0 0 0 0 0 0 0 0 0 0 0 0 0 0 0 -0 0 0 0 0 0
0 0 0 0 0 0 0 0 0 0 0 0 0 0 0 0 0 -0 -0 -0 -0 0 0 0 0 0 0 0 0 0 0 0 0 0 0 0 0 0 -0 0 0 0 0 0 0
0 0 0 0 0 0 0 0 0 0 0 0 0 0 0 0 0 0 -0 -0 -0 0 0 0 0 0 0 0 0 0 0 0 0 0 0 0 0 0 0 0 0 0 0 0 0
-0 0 0 0 0 0 0 0 0 0 0 0 0 0 0 0 0 0 0 -0 -0 -0 0 0 0 0 0 0 0 0 0 0 0 0 0 0 0 0 0 0 0 0 0 0 0
0 0 0 0 0 0 0 0 0 0 0 0 0 0 0 -0 -0 -0 -0 -0 0 0 0 0 0 0 0 0 0 0 0 0 0 0 0 0 0 0 0 0 0 0 0 0 0
0 0 0 0 0 0 0 0 0 0 0 0 0 0 -0 -0 -0 -0 -0 0 0 0 0 0 0 0 0 0 0 0 0 0 0 0 0 0 0 0 0 0 0 0 0 0 0
0 0 0 0 0 0 0 0 0 0 0 0 0 0 0 -0 -0 0 -0 0 0 0 0 0 0 0 0 0 0 0 0 0 0 0 0 0 0 0 0 0 0 0 0 0 0
0 0 0 0 0 0 0 0 0 0 0 0 0 0 0 0 0 0 0 0 0 0 0 0 0 0 0 0 0 0 0 0 0 0 0 0 0 0 0 0 0 0 0 0 0
0 0 0 0 0 0 0 0 0 0 0 0 0 0 0 0 0 0 0 0 0 0 0 0 0 0 0 0 0 0 0 0 0 0 0 0 0 0 0 0 0 0 0 0 0
0 0 0 0 0 0 0 0 0 0 0 0 0 0 0 0 0 0 0 0 0 0 0 0 0 0 0 0 0 0 0 0 0 0 0 0 0 0 0 0 0 0 0 0 0
0 0 0 0 0 0 0 0 0 0 0 0 0 0 0 0 0 0 0 0 0 0 0 0 0 0 0 0 0 0 0 0 0 0 0 0 0 0 0 0 0 0 0 0 0
0 0 0 0 0 0 0 0 0 0 0 0 0 0 0 0 0 0 0 0 0 0 0 0 0 0 0 0 0 0 0 0 0 0 0 0 0 0 0 0 0 0 0 0 0
Wind_Speed_500mb
20 22 18 20 18 19 19 20 27 29 30 31 31 35 33 35 35 25 14 9 6 18 14 12 6 9 13 13 9 6 8 4 10 13 13 14 10 10 13 7 15 16 13 12 37
23 26 20 21 20 22 21 21 29 32 31 29 30 31 32 37 21 8 14 16 7 13 14 12 12 9 8 5 5 8 7 16 16 18 13 21 16 25 9 15 18 17 12 33 40
25 28 23 24 25 23 24 22 28 33 32 27 28 27 33 37 10 6 16 15 8 13 9 14 14 9 4 6 8 8 11 12 20 47 20 25 18 21 15 8 31 37 35 41 44
26 27 27 27 25 27 23 25 26 32 31 24 26 27 35 17 3 13 19 9 8 9 19 17 11 4 3 6 8 3 24 20 14 24 24 28 17 12 35 35 34 38 40 43 39
26 28 28 28 26 28 23 26 25 29 29 23 25 29 33 21 5 17 9 4 16 21 20 18 9 1 4 8 4 7 11 8 29 16 20 33 25 13 31 40 26 32 45 44 38
24 29 27 30 27 28 22 24 26 26 27 23 25 28 38 11 8 16 9 10 21 21 18 13 7 12 5 7 6 8 7 13 11 9 12 15 6 7 27 33 24 39 44 43 39
25 26 28 29 27 26 21 22 25 24 24 21 23 28 34 8 7 10 7 10 8 5 8 10 12 13 21 11 15 6 8 14 12 7 6 17 4 10 28 12 21 35 31 37 19
28 25 28 27 25 22 19 20 23 21 23 20 22 27 14 5 9 3 3 4 5 7 8 11 9 14 5 19 9 10 10 10 10 6 14 12 6 14 23 22 27 27 36 25 23
26 24 25 24 22 19 18 18 21 18 21 20 21 15 5 7 7 1 3 6 11 9 12 14 13 4 2 8 12 16 3 8 10 20 5 13 11 27 14 20 15 27 31 23 20
21 21 20 20 18 17 14 15 16 17 19 18 17 11 5 13 18 3 2 4 4 11 7 3 3 7 7 12 2 6 6 8 10 12 25 13 14 16 26 7 30 20 17 20 21
19 16 16 15 15 14 7 12 10 6 12 13 12 22 18 25 5 6 4 8 7 9 8 9 12 3 7 6 7 7 4 9 3 8 16 9 13 17 27 31 26 6 5 15 13
15 14 13 13 12 5 8 3 9 4 14 13 19 26 20 19 5 3 6 6 9 6 8 13 2 8 5 13 13 7 12 8 7 6 23 25 23 12 27 19 34 12 2 13 15
13 11 11 10 11 5 3 5 8 13 5 8 12 14 2 3 2 4 11 11 8 7 6 7 8 6 8 13 14 3 3 8 19 2 11 10 27 19 18 40 41 31 15 6 4
15 10 10 9 4 7 11 12 7 5 9 9 5 3 7 4 4 4 9 5 8 2 4 6 16 11 18 11 9 8 11 10 17 8 4 4 4 14 18 16 39 30 18 7 4
15 12 8 13 6 14 3 11 4 6 7 6 6 5 7 8 2 7 11 4 9 4 13 8 13 15 14 5 5 4 14 11 9 11 9 20 11 13 11 17 16 33 13 11 3
15 9 11 17 11 12 9 3 12 11 6 5 5 5 7 2 2 8 7 5 7 11 8 6 6 9 4 6 6 12 10 17 10 6 9 13 8 11 9 12 12 20 19 16 13
13 9 14 16 13 10 5 15 10 8 7 5 7 5 4 5 2 5 5 9 6 8 10 15 9 11 15 8 12 7 13 7 9 10 7 6 11 10 11 10 8 18 20 23 25
9 9 15 21 21 1 11 8 3 5 10 9 8 5 8 7 4 4 7 4 2 13 8 6 10 11 18 5 2 10 10 10 7 6 5 9 5 6 7 6 12 14 19 18 17
8 8 16 23 15 5 8 5 9 10 6 9 8 7 3 3 6 7 5 10 11 12 12 8 3 5 4 9 3 3 10 5 13 6 6 2 1 8 6 9 13 16 23 22 19
5 7 12 22 11 16 8 7 7 9 9 2 7 4 7 0 5 8 5 6 6 5 7 12 7 2 6 3 17 9 11 8 8 4 2 5 4 8 6 8 8 9 12 16 18
3 4 19 22 12 5 8 10 11 21 16 10 9 8 7 9 9 7 13 4 4 6 17 9 8 5 5 10 3 10 5 12 10 7 8 3 9 10 16 12 4 13 9 7 10
5 3 31 29 5 5 5 7 13 15 7 4 8 7 9 6 8 6 8 3 10 16 9 2 10 5 4 1 1 2 4 6 9 5 3 6 9 5 11 8 7 10 4 10 8
3 5 35 22 6 1 6 7 8 8 8 9 7 4 8 7 9 2 6 6 1 7 15 13 5 6 14 11 3 6 5 8 9 6 5 7 9 2 6 8 8 2 8 7 7
2 4 11 8 7 10 4 8 10 13 8 10 5 6 7 7 8 8 5 9 10 10 17 11 7 12 13 9 4 6 3 5 7 6 8 8 5 11 12 11 5 8 12 2 8
4 3 4 3 3 4 3 2 6 8 4 7 8 7 1 9 6 7 4 3 11 7 8 9 8 0 5 5 6 4 6 8 8 7 8 10 15 14 20 18 14 14 12 4 11
4 3 10 9 5 7 4 4 4 10 4 4 11 4 8 9 8 13 12 2 5 12 8 7 2 3 13 5 5 6 12 11 5 5 5 9 7 4 24 25 14 16 12 12 13
9 11 5 13 5 7 7 8 9 7 4 5 10 9 10 6 6 20 14 24 15 10 5 7 9 6 2 6 8 9 7 5 4 4 11 8 8 18 12 25 20 13 18 15 11
Wind_Direction_500mb
278 277 281 286 289 295 307 314 310 311 314 318 325 321 323 319 321 320 360 18 96 187 187 175 181 251 272 265 229 155 65 199 233 174 230 172 159 198 201 201 169 210 271 198 169
274 276 279 281 286 293 300 310 310 309 311 322 326 326 326 326 331 69 14 4 207 168 165 148 151 206 217 236 198 132 133 224 205 209 191 170 183 174 171 174 219 206 217 161 172
275 275 277 279 283 287 297 304 308 308 309 324 325 328 326 330 329 22 349 338 246 196 173 147 150 176 159 210 219 177 206 214 233 231 214 160 189 181 168 213 211 201 180 175 181
279 277 277 277 279 283 291 299 305 305 308 322 324 327 328 333 153 350 343 340 197 168 157 149 122 134 165 219 214 263 250 238 278 219 170 144 189 215 209 219 226 208 191 181 182
280 279 276 275 274 278 286 296 302 304 303 317 324 328 338 317 318 352 10 68 140 163 158 126 79 257 210 201 241 197 273 276 250 250 158 141 179 199 239 241 260 210 188 181 187
288 280 278 272 273 275 285 292 296 298 298 315 326 326 327 291 358 13 40 110 139 142 126 81 14 335 283 248 202 274 280 4 352 142 114 133 113 174 253 242 251 194 180 174 194
289 284 277 272 272 273 283 287 287 290 295 313 321 324 314 263 348 28 57 92 121 76 39 19 348 343 321 326 347 315 349 7 40 71 70 124 6 268 308 224 189 183 163 178 179
296 286 276 273 269 274 277 280 279 285 295 307 311 316 273 302 336 39 26 53 2 339 342 326 349 330 347 314 21 47 49 25 358 66 30 3 220 338 339 213 194 137 135 147 163
292 284 277 271 272 271 270 271 276 287 293 298 302 312 294 328 51 20 17 66 7 49 342 279 309 25 36 2 31 10 24 17 33 27 99 50 325 331 7 209 128 103 135 151 168
297 289 279 269 264 260 263 272 282 285 286 285 290 307 13 330 352 298 349 21 43 355 115 74 101 73 28 54 294 301 352 73 49 331 63 53 29 356 25 341 52 74 133 184 217
300 282 268 256 248 249 275 286 298 284 261 241 281 289 309 326 336 87 57 50 65 71 40 15 58 23 283 185 171 146 74 71 153 229 66 23 56 22 31 44 42 41 154 178 217
309 284 261 245 244 237 243 336 32 38 312 256 256 276 313 317 295 107 101 84 69 54 344 11 115 204 240 89 104 64 94 65 29 74 92 68 31 348 27 29 33 61 109 134 145
312 280 253 237 233 196 258 2 278 271 290 279 249 268 244 41 251 114 137 119 101 49 41 150 276 260 148 70 80 357 207 164 154 111 59 49 38 13 354 33 48 55 89 137 152
313 284 241 225 210 177 155 1 291 222 68 288 250 194 176 161 312 183 152 122 44 66 40 23 321 50 100 105 124 55 337 171 123 75 93 7 152 2 340 6 35 37 64 88 127
317 284 229 201 124 157 183 327 173 154 98 259 214 122 162 176 123 150 159 165 132 79 74 288 14 39 66 24 162 86 46 50 102 90 73 356 79 294 354 358 2 13 69 69 87
319 277 223 212 184 155 317 218 146 47 240 309 203 146 100 146 23 119 136 128 108 80 29 7 340 57 54 7 31 146 70 43 56 76 53 313 108 308 3 312 334 2 37 47 51
319 267 217 199 172 164 251 162 43 119 337 205 158 116 125 142 68 94 99 32 113 71 22 355 360 339 39 4 23 91 67 3 10 20 188 299 57 229 320 331 342 336 23 49 61
315 259 213 188 161 298 166 56 127 232 245 298 130 88 155 155 98 91 85 89 28 88 82 96 356 9 343 56 191 34 117 146 195 184 229 6 112 265 293 20 33 37 42 52 59
308 234 208 181 184 234 146 80 219 211 270 322 57 101 12 34 102 77 91 195 208 169 126 133 275 325 59 35 44 132 48 163 106 19 71 239 325 295 2 29 63 38 59 63 70
293 213 168 175 174 158 87 237 248 223 332 246 129 131 157 281 107 112 158 218 158 115 126 188 101 70 297 2 36 98 154 57 19 128 188 288 243 224 226 225 286 353 53 77 84
209 198 151 146 150 166 151 232 276 282 268 198 156 118 168 158 150 163 187 304 29 84 86 128 96 278 31 29 331 348 29 55 109 115 156 185 259 212 203 221 324 301 341 113 84
220 88 155 154 93 63 158 204 317 303 325 277 109 113 148 136 119 126 157 287 351 138 96 116 123 98 185 323 191 197 98 103 112 222 70 136 282 27 198 209 249 306 62 113 51
185 115 163 169 135 322 277 307 277 310 315 7 63 51 44 110 95 100 113 27 87 97 158 178 31 60 352 358 347 63 54 97 103 83 184 123 265 162 186 215 229 271 155 95 35
160 114 146 190 101 140 113 306 303 298 282 66 65 75 116 76 13 133 104 20 57 76 100 102 101 149 181 197 146 63 108 117 99 104 176 215 234 233 228 211 121 172 171 109 349
28 77 140 143 9 76 46 348 304 299 293 24 34 58 80 94 56 99 94 89 67 125 64 89 96 137 73 141 125 127 81 186 200 166 143 213 193 214 200 183 153 178 181 270 310
56 103 89 67 76 95 44 258 256 296 279 354 118 95 55 115 158 192 130 136 155 40 69 10 127 93 27 28 51 75 32 89 93 125 57 113 242 252 179 153 159 183 201 252 292
47 69 86 30 38 109 213 245 247 310 351 116 159 90 54 337 122 104 110 97 101 106 93 68 120 82 98 339 48 9 332 321 180 172 148 173 238 154 147 170 183 208 216 248 294
Wind_Speed_850mb
20 22 18 20 18 19 19 20 27 29 30 31 31 35 33 35 35 25 14 9 6 18 14 12 6 9 13 13 9 6 8 4 10 13 13 14 10 10 13 7 15 16 13 12 37
23 26 20 21 20 22 21 21 29 32 31 29 30 31 32 37 21 8 14 16 7 13 14 12 12 9 8 5 5 8 7 16 16 18 13 21 16 25 9 15 18 17 12 33 40
25 28 23 24 25 23 24 22 28 33 32 27 28 27 33 37 10 6 16 15 8 13 9 14 14 9 4 6 8 8 11 12 20 47 20 25 18 21 15 8 31 37 35 41 44
26 27 27 27 25 27 23 25 26 32 31 24 26 27 35 17 3 13 19 9 8 9 19 17 11 4 3 6 8 3 24 20 14 24 24 28 17 12 35 35 34 38 40 43 39
26 28 28 28 26 28 23 26 25 29 29 23 25 29 33 21 5 17 9 4 16 21 20 18 9 1 4 8 4 7 11 8 29 16 20 33 25 13 31 40 26 32 45 44 38
24 29 27 30 27 28 22 24 26 26 27 23 25 28 38 11 8 16 9 10 21 21 18 13 7 12 5 7 6 8 7 13 11 9 12 15 6 7 27 33 24 39 44 43 39
25 26 28 29 27 26 21 22 25 24 24 21 23 28 34 8 7 10 7 10 8 5 8 10 12 13 21 11 15 6 8 14 12 7 6 17 4 10 28 12 21 35 31 37 19
28 25 28 27 25 22 19 20 23 21 23 20 22 27 14 5 9 3 3 4 5 7 8 11 9 14 5 19 9 10 10 10 10 6 14 12 6 14 23 22 27 27 36 25 23
26 24 25 24 22 19 18 18 21 18 21 20 21 15 5 7 7 1 3 6 11 9 12 14 13 4 2 8 12 16 3 8 10 20 5 13 11 27 14 20 15 27 31 23 20
21 21 20 20 18 17 14 15 16 17 19 18 17 11 5 13 18 3 2 4 4 11 7 3 3 7 7 12 2 6 6 8 10 12 25 13 14 16 26 7 30 20 17 20 21
19 16 16 15 15 14 7 12 10 6 12 13 12 22 18 25 5 6 4 8 7 9 8 9 12 3 7 6 7 7 4 9 3 8 16 9 13 17 27 31 26 6 5 15 13
15 14 13 13 12 5 8 3 9 4 14 13 19 26 20 19 5 3 6 6 9 6 8 13 2 8 5 13 13 7 12 8 7 6 23 25 23 12 27 19 34 12 2 13 15
13 11 11 10 11 5 3 5 8 13 5 8 12 14 2 3 2 4 11 11 8 7 6 7 8 6 8 13 14 3 3 8 19 2 11 10 27 19 18 40 41 31 15 6 4
15 10 10 9 4 7 11 12 7 5 9 9 5 3 7 4 4 4 9 5 8 2 4 6 16 11 18 11 9 8 11 10 17 8 4 4 4 14 18 16 39 30 18 7 4
15 12 8 13 6 14 3 11 4 6 7 6 6 5 7 8 2 7 11 4 9 4 13 8 13 15 14 5 5 4 14 11 9 11 9 20 11 13 11 17 16 33 13 11 3
15 9 11 17 11 12 9 3 12 11 6 5 5 5 7 2 2 8 7 5 7 11 8 6 6 9 4 6 6 12 10 17 10 6 9 13 8 11 9 12 12 20 19 16 13
13 9 14 16 13 10 5 15 10 8 7 5 7 5 4 5 2 5 5 9 6 8 10 15 9 11 15 8 12 7 13 7 9 10 7 6 11 10 11 10 8 18 20 23 25
9 9 15 21 21 1 11 8 3 5 10 9 8 5 8 7 4 4 7 4 2 13 8 6 10 11 18 5 2 10 10 10 7 6 5 9 5 6 7 6 12 14 19 18 17
8 8 16 23 15 5 8 5 9 10 6 9 8 7 3 3 6 7 5 10 11 12 12 8 3 5 4 9 3 3 10 5 13 6 6 2 1 8 6 9 13 16 23 22 19
5 7 12 22 11 16 8 7 7 9 9 2 7 4 7 0 5 8 5 6 6 5 7 12 7 2 6 3 17 9 11 8 8 4 2 5 4 8 6 8 8 9 12 16 18
3 4 19 22 12 5 8 10 11 21 16 10 9 8 7 9 9 7 13 4 4 6 17 9 8 5 5 10 3 10 5 12 10 7 8 3 9 10 16 12 4 13 9 7 10
5 3 31 29 5 5 5 7 13 15 7 4 8 7 9 6 8 6 8 3 10 16 9 2 10 5 4 1 1 2 4 6 9 5 3 6 9 5 11 8 7 10 4 10 8
3 5 35 22 6 1 6 7 8 8 8 9 7 4 8 7 9 2 6 6 1 7 15 13 5 6 14 11 3 6 5 8 9 6 5 7 9 2 6 8 8 2 8 7 7
2 4 11 8 7 10 4 8 10 13 8 10 5 6 7 7 8 8 5 9 10 10 17 11 7 12 13 9 4 6 3 5 7 6 8 8 5 11 12 11 5 8 12 2 8
4 3 4 3 3 4 3 2 6 8 4 7 8 7 1 9 6 7 4 3 11 7 8 9 8 0 5 5 6 4 6 8 8 7 8 10 15 14 20 18 14 14 12 4 11
4 3 10 9 5 7 4 4 4 10 4 4 11 4 8 9 8 13 12 2 5 12 8 7 2 3 13 5 5 6 12 11 5 5 5 9 7 4 24 25 14 16 12 12 13
9 11 5 13 5 7 7 8 9 7 4 5 10 9 10 6 6 20 14 24 15 10 5 7 9 6 2 6 8 9 7 5 4 4 11 8 8 18 12 25 20 13 18 15 11
Wind_Direction_850mb
278 277 281 286 289 295 307 314 310 311 314 318 325 321 323 319 321 320 360 18 96 187 187 175 181 251 272 265 229 155 65 199 233 174 230 172 159 198 201 201 169 210 271 198 169
274 276 279 281 286 293 300 310 310 309 311 322 326 326 326 326 331 69 14 4 207 168 165 148 151 206 217 236 198 132 133 224 205 209 191 170 183 174 171 174 219 206 217 161 172
275 275 277 279 283 287 297 304 308 308 309 324 325 328 326 330 329 22 349 338 246 196 173 147 150 176 159 210 219 177 206 214 233 231 214 160 189 181 168 213 211 201 180 175 181
279 277 277 277 279 283 291 299 305 305 308 322 324 327 328 333 153 350 343 340 197 168 157 149 122 134 165 219 214 263 250 238 278 219 170 144 189 215 209 219 226 208 191 181 182
280 279 276 275 274 278 286 296 302 304 303 317 324 328 338 317 318 352 10 68 140 163 158 126 79 257 210 201 241 197 273 276 250 250 158 141 179 199 239 241 260 210 188 181 187
288 280 278 272 273 275 285 292 296 298 298 315 326 326 327 291 358 13 40 110 139 142 126 81 14 335 283 248 202 274 280 4 352 142 114 133 113 174 253 242 251 194 180 174 194
289 284 277 272 272 273 283 287 287 290 295 313 321 324 314 263 348 28 57 92 121 76 39 19 348 343 321 326 347 315 349 7 40 71 70 124 6 268 308 224 189 183 163 178 179
296 286 276 273 269 274 277 280 279 285 295 307 311 316 273 302 336 39 26 53 2 339 342 326 349 330 347 314 21 47 49 25 358 66 30 3 220 338 339 213 194 137 135 147 163
292 284 277 271 272 271 270 271 276 287 293 298 302 312 294 328 51 20 17 66 7 49 342 279 309 25 36 2 31 10 24 17 33 27 99 50 325 331 7 209 128 103 135 151 168
297 289 279 269 264 260 263 272 282 285 286 285 290 307 13 330 352 298 349 21 43 355 115 74 101 73 28 54 294 301 352 73 49 331 63 53 29 356 25 341 52 74 133 184 217
300 282 268 256 248 249 275 286 298 284 261 241 281 289 309 326 336 87 57 50 65 71 40 15 58 23 283 185 171 146 74 71 153 229 66 23 56 22 31 44 42 41 154 178 217
309 284 261 245 244 237 243 336 32 38 312 256 256 276 313 317 295 107 101 84 69 54 344 11 115 204 240 89 104 64 94 65 29 74 92 68 31 348 27 29 33 61 109 134 145
312 280 253 237 233 196 258 2 278 271 290 279 249 268 244 41 251 114 137 119 101 49 41 150 276 260 148 70 80 357 207 164 154 111 59 49 38 13 354 33 48 55 89 137 152
313 284 241 225 210 177 155 1 291 222 68 288 250 194 176 161 312 183 152 122 44 66 40 23 321 50 100 105 124 55 337 171 123 75 93 7 152 2 340 6 35 37 64 88 127
317 284 229 201 124 157 183 327 173 154 98 259 214 122 162 176 123 150 159 165 132 79 74 288 14 39 66 24 162 86 46 50 102 90 73 356 79 294 354 358 2 13 69 69 87
319 277 223 212 184 155 317 218 146 47 240 309 203 146 100 146 23 119 136 128 108 80 29 7 340 57 54 7 31 146 70 43 56 76 53 313 108 308 3 312 334 2 37 47 51
319 267 217 199 172 164 251 162 43 119 337 205 158 116 125 142 68 94 99 32 113 71 22 355 360 339 39 4 23 91 67 3 10 20 188 299 57 229 320 331 342 336 23 49 61
315 259 213 188 161 298 166 56 127 232 245 298 130 88 155 155 98 91 85 89 28 88 82 96 356 9 343 56 191 34 117 146 195 184 229 6 112 265 293 20 33 37 42 52 59
308 234 208 181 184 234 146 80 219 211 270 322 57 101 12 34 102 77 91 195 208 169 126 133 275 325 59 35 44 132 48 163 106 19 71 239 325 295 2 29 63 38 59 63 70
293 213 168 175 174 158 87 237 248 223 332 246 129 131 157 281 107 112 158 218 158 115 126 188 101 70 297 2 36 98 154 57 19 128 188 288 243 224 226 225 286 353 53 77 84
209 198 151 146 150 166 151 232 276 282 268 198 156 118 168 158 150 163 187 304 29 84 86 128 96 278 31 29 331 348 29 55 109 115 156 185 259 212 203 221 324 301 341 113 84
220 88 155 154 93 63 158 204 317 303 325 277 109 113 148 136 119 126 157 287 351 138 96 116 123 98 185 323 191 197 98 103 112 222 70 136 282 27 198 209 249 306 62 113 51
185 115 163 169 135 322 277 307 277 310 315 7 63 51 44 110 95 100 113 27 87 97 158 178 31 60 352 358 347 63 54 97 103 83 184 123 265 162 186 215 229 271 155 95 35
160 114 146 190 101 140 113 306 303 298 282 66 65 75 116 76 13 133 104 20 57 76 100 102 101 149 181 197 146 63 108 117 99 104 176 215 234 233 228 211 121 172 171 109 349
28 77 140 143 9 76 46 348 304 299 293 24 34 58 80 94 56 99 94 89 67 125 64 89 96 137 73 141 125 127 81 186 200 166 143 213 193 214 200 183 153 178 181 270 310
56 103 89 67 76 95 44 258 256 296 279 354 118 95 55 115 158 192 130 136 155 40 69 10 127 93 27 28 51 75 32 89 93 125 57 113 242 252 179 153 159 183 201 252 292
47 69 86 30 38 109 213 245 247 310 351 116 159 90 54 337 122 104 110 97 101 106 93 68 120 82 98 339 48 9 332 321 180 172 148 173 238 154 147 170 183 208 216 248 294